Paso Robles, CA

6:35 AM PST on February 24, 2018 (GMT -0800)
Paso Robles Municipal

Weather History for KPRB - December, 2013

Change the Weather History Date:

Thursday, December 5, 2013

  Actual Average Record
Temperature  
Mean Temperature 34 °F 47 °F  
Max Temperature 50 °F 60 °F 77 °F (1962)
Min Temperature 17 °F 34 °F 17 °F (2013)
Degree Days  
Heating Degree Days 31 18  
Month to date heating degree days 93 87  
Since 1 July heating degree days 545 636  
Cooling Degree Days 0 0  
Month to date cooling degree days 0 0  
Year to date cooling degree days 1173 927  
Moisture  
Dew Point 12 °F    
Average Humidity 42    
Maximum Humidity 65    
Minimum Humidity 19    
Precipitation  
Precipitation 0.00 in 0.05 in 1.95 in (1997)
Month to date precipitation 0.00 0.23  
Year to date precipitation 1.75 11.00  
Since 1 July precipitation 0.29  
Sea Level Pressure  
Sea Level Pressure 30.12 in    
Wind  
Wind Speed 2 mph (East)    
Max Wind Speed 9 mph    
Max Gust Speed 12 mph    
Visibility 9 miles    
Events      
T = Trace of Precipitation, MM = Missing Value Source: NWS Daily Summary

Daily Weather History Graph

Daily Weather History Graph

Search for Another Location

Airport or City:

Trip Planner

Search our weather history database for the weather conditions in past years. The results will help you decide how hot, cold, wet, or windy it might be!

Date:

Astronomy

Dec. 05, 2013 Rise Set
Actual Time 6:57 AM PST 4:48 PM PST
Civil Twilight 6:29 AM PST 5:17 PM PST
Nautical Twilight 5:57 AM PST 5:48 PM PST
Astronomical Twilight 5:26 AM PST 6:19 PM PST
Moon 9:24 AM PST (12/5) 8:12 PM PST (12/5)
Length of Visible Light 10h 47m
Length of Day
9h 51m
Waxing Crescent, 11% of the Moon is Illuminated
Dec 5
Waxing Crescent
Dec 9
First Quarter
Dec 17
Full
Dec 25
Last Quarter
Jan 1
New

Hourly Weather History & Observations

Time (PST) Temp. Windchill Dew Point Humidity Pressure Visibility Wind Dir Wind Speed Gust Speed Precip Events Conditions
12:53 AM 26.1 °F - 12.0 °F 55% 30.06 in 10.0 mi Calm Calm - N/A   Clear
1:53 AM 25.0 °F 20.7 °F 12.0 °F 58% 30.06 in 10.0 mi East 3.5 mph - N/A   Clear
2:53 AM 23.0 °F 18.4 °F 12.0 °F 63% 30.07 in 10.0 mi SE 3.5 mph - N/A   Clear
3:53 AM 21.9 °F - 10.9 °F 63% 30.08 in 10.0 mi Calm Calm - N/A   Clear
4:53 AM 21.0 °F - 10.9 °F 65% 30.09 in 10.0 mi Calm Calm - N/A   Clear
5:53 AM 21.0 °F 16.2 °F 10.9 °F 65% 30.10 in 10.0 mi SSE 3.5 mph - N/A   Clear
6:53 AM 19.0 °F - 9.0 °F 65% 30.12 in 10.0 mi Calm Calm - N/A   Clear
7:53 AM 21.9 °F - 10.9 °F 63% 30.14 in 10.0 mi Calm Calm - N/A   Clear
8:53 AM 28.9 °F - 14.0 °F 54% 30.15 in 10.0 mi Calm Calm - N/A   Clear
9:53 AM 34.0 °F - 15.1 °F 46% 30.16 in 10.0 mi Calm Calm - N/A   Clear
10:53 AM 39.0 °F - 15.1 °F 38% 30.15 in 10.0 mi Calm Calm - N/A   Clear
11:53 AM 45.0 °F - 12.9 °F 27% 30.12 in 10.0 mi Calm Calm - N/A   Clear
12:53 PM 46.9 °F - 10.9 °F 23% 30.11 in 10.0 mi NNW 5.8 mph - N/A   Clear
1:53 PM 48.0 °F - 10.0 °F 22% 30.09 in 10.0 mi Variable 3.5 mph - N/A   Clear
2:53 PM 48.9 °F - 9.0 °F 20% 30.08 in 10.0 mi Calm Calm - N/A   Clear
3:53 PM 48.9 °F - 9.0 °F 20% 30.09 in 10.0 mi Calm Calm - N/A   Clear
4:53 PM 45.0 °F 40.6 °F 10.9 °F 25% 30.10 in 7.0 mi East 8.1 mph - N/A   Clear
5:53 PM 39.9 °F 34.5 °F 12.9 °F 33% 30.12 in 5.0 mi East 8.1 mph - N/A   Haze
6:53 PM 36.0 °F 32.1 °F 12.9 °F 39% 30.13 in 6.0 mi East 4.6 mph - N/A   Haze
7:53 PM 37.0 °F - 12.0 °F 36% 30.15 in 10.0 mi Calm Calm - N/A   Clear
8:18 PM 35.6 °F 32.8 °F 12.2 °F 38% 30.14 in 6.0 mi East 3.5 mph - N/A   Haze
8:39 PM 35.6 °F - 12.2 °F 38% 30.14 in 1.8 mi Calm Calm - N/A   Haze
8:48 PM 33.8 °F 30.8 °F 12.2 °F 41% 30.14 in 3.0 mi ESE 3.5 mph - N/A   Haze
8:53 PM 33.1 °F 30.0 °F 12.9 °F 43% 30.17 in 7.0 mi East 3.5 mph - N/A   Partly Cloudy
9:53 PM 28.0 °F 24.2 °F 12.0 °F 51% 30.18 in 10.0 mi East 3.5 mph - N/A   Clear
10:53 PM 27.0 °F 21.6 °F 12.0 °F 53% 30.19 in 10.0 mi East 4.6 mph - N/A   Clear
11:53 PM 26.1 °F 21.9 °F 12.0 °F 55% 30.18 in 10.0 mi East 3.5 mph - N/A   Clear